Weather History for Port Clinton Carl R Keller Fi, OH

Change the Weather History Date:

Monday, April 7, 2014

  Actual Average (KTOL) Record (KTOL)
Temperature  
Mean Temperature 40 °F 46 °F  
Max Temperature 46 °F 57 °F 83 °F (1991)
Min Temperature 34 °F 36 °F 8 °F (1982)
Degree Days  
Heating Degree Days 25 19  
Month to date heating degree days 140  
Since 1 July heating degree days 5566  
Cooling Degree Days 0 0  
Month to date cooling degree days 0  
Year to date cooling degree days 0  
Moisture  
Dew Point 34 °F    
Average Humidity 81    
Maximum Humidity 100    
Minimum Humidity 57    
Precipitation  
Precipitation 0.00 in 0.11 in 0.49 in (1957)
Month to date precipitation 0.71  
Year to date precipitation 7.31  
Snow  
Snow 0.00 in 0.10 in - ()
Month to date snowfall 0.6  
Since 1 July snowfall 36.8  
Snow Depth -    
Sea Level Pressure  
Sea Level Pressure 29.72 in    
Wind  
Wind Speed 8 mph (ENE)    
Max Wind Speed 14 mph    
Max Gust Speed -    
Visibility 8 miles    
Events Rain    
T = Trace of Precipitation, MM = Missing Value Source: NWS Daily Summary

Daily Weather History Graph

Daily Weather History Graph

Search for Another Location

Airport:

Trip Planner

Search our weather history database for the weather conditions in past years. The results will help you decide how hot, cold, wet, or windy it might be!

Date:

Astronomy

Apr. 07, 2014 Rise Set
Actual Time 7:04 AM EDT 8:03 PM EDT
Civil Twilight 6:36 AM EDT 8:31 PM EDT
Nautical Twilight 6:02 AM EDT 9:05 PM EDT
Astronomical Twilight 5:27 AM EDT 9:40 PM EDT
Moon 12:57 PM EDT (4/7) 2:41 AM EDT (4/7)
Length of Visible Light 13h 55m
Length of Day
12h 58m
First Quarter, 53% of the Moon is Illuminated
Apr 7
First Quarter
Apr 15
Full
Apr 22
Last Quarter
Apr 29
New
May 6
First Quarter

Hourly Weather History & Observations

Time (EDT) Temp. Windchill Dew Point Humidity Pressure Visibility Wind Dir Wind Speed Gust Speed Precip Events Conditions
12:14 AM 35.6 °F 29.2 °F 26.6 °F 70% 29.99 in 10.0 mi East 8.1 mph - N/A   Clear
12:33 AM 35.6 °F 31.7 °F 26.6 °F 70% 29.99 in 10.0 mi East 4.6 mph - N/A   Clear
12:53 AM 36.0 °F 31.1 °F 28.0 °F 73% 29.99 in 10.0 mi East 5.8 mph - N/A   Clear
1:14 AM 35.6 °F 29.2 °F 30.2 °F 81% 29.99 in 10.0 mi East 8.1 mph - N/A   Clear
1:33 AM 35.6 °F 29.9 °F 30.2 °F 81% 29.98 in 10.0 mi East 6.9 mph - N/A   Clear
1:54 AM 34.9 °F 29.0 °F 30.0 °F 82% 29.97 in 10.0 mi East 6.9 mph - N/A   Clear
2:13 AM 35.6 °F 29.9 °F 30.2 °F 81% 29.96 in 10.0 mi East 6.9 mph - N/A   Clear
2:33 AM 35.6 °F 30.7 °F 30.2 °F 81% 29.95 in 10.0 mi East 5.8 mph - N/A   Clear
2:54 AM 34.9 °F 28.3 °F 31.1 °F 86% 29.94 in 10.0 mi East 8.1 mph - N/A   Clear
3:13 AM 35.6 °F 29.9 °F 30.2 °F 81% 29.94 in 10.0 mi East 6.9 mph - N/A   Clear
3:34 AM 35.6 °F 30.7 °F 30.2 °F 81% 29.93 in 10.0 mi East 5.8 mph - N/A   Clear
3:53 AM 34.9 °F 29.0 °F 30.0 °F 82% 29.91 in 10.0 mi East 6.9 mph - N/A   Clear
4:13 AM 35.6 °F 29.2 °F 30.2 °F 81% 29.90 in 10.0 mi East 8.1 mph - N/A   Clear
4:33 AM 35.6 °F 29.9 °F 30.2 °F 81% 29.90 in 10.0 mi East 6.9 mph - N/A   Clear
4:53 AM 36.0 °F 30.3 °F 30.0 °F 79% 29.88 in 10.0 mi East 6.9 mph - N/A   Clear
5:14 AM 35.6 °F 29.2 °F 30.2 °F 81% 29.86 in 10.0 mi East 8.1 mph - N/A   Clear
5:34 AM 35.6 °F 28.6 °F 30.2 °F 81% 29.86 in 10.0 mi East 9.2 mph - N/A   Clear
5:53 AM 36.0 °F 29.6 °F 31.1 °F 82% 29.85 in 10.0 mi East 8.1 mph - N/A   Clear
6:14 AM 35.6 °F 29.2 °F 30.2 °F 81% 29.87 in 10.0 mi East 8.1 mph - N/A   Clear
6:33 AM 35.6 °F 29.9 °F 30.2 °F 81% 29.87 in 10.0 mi East 6.9 mph - N/A   Clear
6:53 AM 36.9 °F 33.1 °F 31.1 °F 80% 29.87 in 10.0 mi East 4.6 mph - N/A   Clear
7:14 AM 35.6 °F 30.7 °F 32.0 °F 87% 29.86 in 10.0 mi ENE 5.8 mph - N/A   Clear
7:33 AM 35.6 °F 29.9 °F 32.0 °F 87% 29.85 in 10.0 mi East 6.9 mph - N/A   Clear
7:53 AM 36.9 °F 32.2 °F 32.9 °F 86% 29.85 in 10.0 mi East 5.8 mph - N/A   Clear
8:13 AM 37.4 °F 31.4 °F 33.8 °F 87% 29.83 in 10.0 mi East 8.1 mph - N/A   Clear
8:33 AM 39.2 °F 33.0 °F 32.0 °F 75% 29.83 in 10.0 mi East 9.2 mph - N/A   Clear
8:54 AM 41.0 °F 35.8 °F 32.0 °F 70% 29.82 in 10.0 mi ESE 8.1 mph - N/A   Clear
9:13 AM 42.8 °F 39.3 °F 30.2 °F 61% 29.82 in 10.0 mi ESE 5.8 mph - N/A   Scattered Clouds
9:54 AM 43.9 °F 38.8 °F 30.0 °F 58% 29.81 in 10.0 mi East 9.2 mph - N/A   Clear
10:13 AM 44.6 °F 40.7 °F 30.2 °F 57% 29.81 in 10.0 mi East 6.9 mph - N/A   Clear
10:33 AM 42.8 °F 37.5 °F 32.0 °F 66% 29.79 in 10.0 mi NE 9.2 mph - N/A   Partly Cloudy
10:54 AM 43.0 °F 38.8 °F 32.0 °F 65% 29.79 in 10.0 mi ENE 6.9 mph - N/A   Clear
11:13 AM 42.8 °F 38.0 °F 33.8 °F 70% 29.78 in 10.0 mi East 8.1 mph - N/A   Partly Cloudy
11:34 AM 42.8 °F 38.0 °F 33.8 °F 70% 29.76 in 10.0 mi East 8.1 mph - N/A Rain Light Rain
11:54 AM 42.8 °F 37.0 °F 33.8 °F 70% 29.75 in 10.0 mi East 10.4 mph - N/A Rain Light Rain
12:13 PM 44.6 °F 39.2 °F 32.0 °F 61% 29.74 in 10.0 mi East 10.4 mph - N/A   Clear
12:34 PM 44.6 °F 39.7 °F 32.0 °F 61% 29.74 in 10.0 mi East 9.2 mph - N/A   Clear
12:54 PM 45.0 °F 38.9 °F 32.0 °F 60% 29.71 in 10.0 mi ENE 12.7 mph - N/A   Clear
1:13 PM 44.6 °F 38.4 °F 32.0 °F 61% 29.69 in 10.0 mi ENE 12.7 mph - N/A   Clear
1:34 PM 44.6 °F 38.1 °F 33.8 °F 66% 29.70 in 10.0 mi East 13.8 mph - N/A   Partly Cloudy
1:54 PM 46.4 °F 40.7 °F 32.0 °F 57% 29.67 in 10.0 mi East 12.7 mph - N/A   Partly Cloudy
2:13 PM 46.4 °F 41.5 °F 33.8 °F 62% 29.65 in 10.0 mi ENE 10.4 mph - N/A   Scattered Clouds
2:34 PM 44.6 °F 39.2 °F 33.8 °F 66% 29.63 in 10.0 mi ENE 10.4 mph - N/A   Overcast
2:47 PM 46.4 °F 42.4 °F 35.6 °F 66% 29.62 in 10.0 mi East 8.1 mph - N/A Rain Light Rain
5:53 PM 41.0 °F 35.2 °F 39.2 °F 93% 29.52 in 4.0 mi NE 9.2 mph - N/A Rain Light Rain
5:54 PM 41.0 °F 35.2 °F 39.2 °F 93% 29.51 in 4.0 mi NE 9.2 mph - N/A Rain Light Rain
6:13 PM 39.2 °F 33.0 °F 39.2 °F 100% 29.51 in 2.5 mi NE 9.2 mph - N/A Rain Light Rain
6:33 PM 39.2 °F 32.5 °F 39.2 °F 100% 29.49 in 1.5 mi NE 10.4 mph - N/A Rain Heavy Rain
6:46 PM 41.0 °F 34.3 °F 39.2 °F 93% 29.48 in 2.0 mi ENE 11.5 mph - N/A Rain Rain
7:11 PM 41.0 °F 33.5 °F 39.2 °F 93% 29.46 in 2.0 mi ENE 13.8 mph - N/A Rain Rain
7:34 PM 39.2 °F 32.0 °F 39.2 °F 100% 29.46 in 2.0 mi ENE 11.5 mph - N/A Rain Light Rain
7:54 PM 39.2 °F 31.2 °F 39.2 °F 100% 29.43 in 2.0 mi NE 13.8 mph - N/A Rain Rain
8:05 PM 39.2 °F 31.6 °F 39.2 °F 100% 29.42 in 2.5 mi NE 12.7 mph - N/A Rain Light Rain
8:34 PM 39.2 °F 32.0 °F 39.2 °F 100% 29.44 in 2.5 mi NE 11.5 mph - N/A Rain Heavy Rain
8:43 PM 39.2 °F 32.5 °F 39.2 °F 100% 29.46 in 2.5 mi NNE 10.4 mph - N/A Rain Heavy Rain
9:13 PM 39.2 °F 32.5 °F 39.2 °F 100% 29.45 in 4.0 mi NNE 10.4 mph - N/A Rain Light Rain
9:33 PM 39.2 °F 33.0 °F 39.2 °F 100% 29.46 in 6.0 mi NNE 9.2 mph - N/A Rain Light Rain
9:47 PM 38.8 °F 32.1 °F 37.9 °F 97% 29.45 in 4.0 mi NNE 10.4 mph - N/A Rain Light Rain
10:06 PM 39.2 °F 31.6 °F 37.4 °F 93% 29.45 in 3.0 mi NNE 12.7 mph - N/A Rain Light Rain
10:27 PM 39.2 °F 32.0 °F 39.2 °F 100% 29.44 in 2.5 mi NNE 11.5 mph - N/A Rain Light Rain
10:52 PM 39.2 °F 32.0 °F 39.2 °F 100% 29.42 in 2.5 mi NE 11.5 mph - N/A Rain Light Rain
11:13 PM 39.2 °F 32.0 °F 39.2 °F 100% 29.41 in 4.0 mi NE 11.5 mph - N/A Rain Light Rain
11:34 PM 39.2 °F 31.6 °F 37.4 °F 93% 29.42 in 5.0 mi NE 12.7 mph - N/A Rain Light Rain
11:53 PM 38.8 °F 30.8 °F 38.8 °F 100% 29.41 in 6.0 mi NE 13.8 mph - N/A Rain Light Rain